Theta_e
304 305 305 303 301 299 299 299 299 298 299 299 299 299 300 299 299 299 299 299 300 301 301 301 302 302 303 303 303 303 302 303 303 303 303 303 306 306 303 304 304 302 302 302 302 304 304 304 304 305 306 305 305 305 306 305 305 308 310 310 309 308 306 304 304 304 304 303 303 303 304 306 306 305 305 307 308 309 310 309 309 309 310 310 310 309 308 309
301 302 302 299 297 298 299 299 298 298 299 299 299 299 300 299 299 299 299 299 300 301 301 301 302 302 302 303 303 304 303 303 303 302 302 302 304 303 302 302 303 303 302 301 302 304 304 303 304 305 305 304 304 305 306 305 305 307 308 308 307 305 303 302 301 301 302 302 302 302 303 304 303 303 304 307 308 307 309 308 307 308 308 308 309 308 306 307
298 298 298 297 297 298 298 298 298 298 298 298 299 299 300 300 299 299 299 299 300 301 301 301 302 302 302 302 303 304 304 304 303 301 302 302 303 302 302 302 303 303 302 302 302 302 303 303 304 305 305 304 304 305 305 304 305 305 306 306 304 302 302 302 301 301 300 301 302 303 302 303 302 302 303 306 307 305 305 304 305 307 306 305 306 306 305 306
296 296 296 297 297 297 298 298 298 298 298 298 299 300 300 300 300 299 299 299 300 301 301 301 302 302 302 302 303 302 303 305 302 300 301 301 302 302 302 302 303 303 302 302 301 302 302 303 305 305 305 304 304 304 304 303 304 304 304 304 302 303 303 302 302 301 300 300 303 303 303 303 301 301 301 304 307 305 302 302 303 305 304 303 304 304 303 304
296 296 296 297 297 297 297 297 298 297 298 298 298 299 300 300 300 299 299 299 299 300 301 301 301 302 302 303 304 302 304 305 301 300 301 301 301 302 302 302 303 303 303 302 303 303 304 305 306 305 305 304 304 304 303 302 303 303 302 303 302 303 304 302 302 302 302 302 303 304 303 303 302 301 301 301 304 302 300 301 302 303 303 302 302 303 303 303
296 297 297 297 297 297 297 297 297 297 297 298 298 299 299 299 299 299 299 299 299 300 301 301 301 301 301 302 303 303 304 303 300 299 300 300 301 301 302 302 303 303 303 303 304 305 305 305 305 305 304 304 304 303 303 302 303 303 302 302 302 303 303 302 302 301 302 303 303 304 303 302 302 301 300 300 300 300 300 301 301 303 302 302 302 302 302 301
296 297 297 297 297 297 297 297 297 297 297 298 298 299 299 299 299 299 299 299 299 300 300 300 301 301 301 301 302 302 302 301 298 299 300 300 300 301 302 301 302 303 303 304 305 306 305 305 304 304 304 303 303 303 303 303 303 304 303 302 302 302 302 301 301 301 302 303 302 303 303 302 302 302 301 300 299 299 300 301 301 302 302 301 301 301 301 300
296 296 297 297 297 297 298 297 297 297 298 298 298 299 299 299 300 299 299 299 299 300 300 299 299 301 300 301 302 301 300 299 298 299 300 300 300 301 302 301 302 302 303 304 305 307 306 305 304 304 304 303 303 303 303 303 303 303 302 302 302 302 302 302 301 301 302 302 302 303 303 302 301 301 301 299 299 298 299 300 301 301 301 300 299 299 299 299
297 296 297 297 298 298 298 298 298 298 298 298 298 299 299 300 300 299 299 299 300 300 300 300 299 300 300 301 303 301 299 297 297 299 300 300 300 301 301 301 302 302 302 302 303 306 306 305 304 304 304 303 303 302 303 303 303 302 302 302 303 303 303 302 302 301 301 302 303 303 302 302 301 301 301 299 298 298 299 300 300 301 300 299 298 298 297 297
297 297 297 298 298 298 299 298 299 298 298 299 299 299 300 300 299 299 299 299 299 299 300 300 299 300 300 301 303 300 298 297 298 299 299 299 300 301 301 301 301 301 302 302 302 304 305 305 305 305 304 303 303 302 303 303 302 301 302 302 302 303 303 303 303 302 301 301 302 304 303 302 301 302 302 300 298 298 299 299 299 300 299 298 298 297 296 296
297 297 298 298 299 298 299 299 299 299 299 299 300 300 299 299 299 299 299 299 299 299 299 299 299 299 300 300 301 299 297 297 298 299 299 299 300 300 300 300 300 301 302 303 302 302 303 304 304 305 305 303 303 302 302 302 301 300 301 302 302 303 303 303 303 302 302 302 301 302 304 303 302 302 301 300 299 298 298 299 299 299 298 297 297 297 296 295
298 298 298 299 299 298 299 298 298 298 299 299 300 300 300 299 299 299 299 299 299 299 299 299 299 299 299 299 299 298 297 297 298 299 299 299 299 300 300 299 299 300 300 301 301 300 301 303 304 305 305 303 302 302 301 300 300 300 301 302 302 303 303 302 303 302 303 302 301 301 304 304 302 301 300 299 299 298 298 299 299 298 298 297 296 296 296 295
298 298 298 299 299 298 298 298 298 298 299 299 299 300 300 299 299 299 299 299 299 299 299 299 299 299 300 299 297 297 297 297 298 299 299 298 299 300 300 299 299 298 299 300 300 300 301 302 304 304 304 304 302 302 302 301 301 301 301 303 303 304 304 303 302 303 303 302 301 301 303 304 302 301 300 299 299 298 298 299 298 298 297 296 296 295 295 295
298 298 298 299 298 298 298 298 298 298 298 299 299 300 300 299 300 299 299 299 299 299 299 300 299 299 300 298 297 297 297 297 298 299 299 298 298 299 299 299 299 298 298 299 299 300 300 301 303 304 303 303 302 301 302 302 302 302 301 303 305 306 305 303 302 302 303 302 302 302 304 304 302 301 299 299 299 298 298 298 297 297 296 296 295 294 294 294
298 298 299 299 299 299 299 299 298 298 298 299 299 299 300 300 300 300 300 299 299 299 299 300 300 300 301 299 298 297 297 297 297 297 298 298 298 298 299 299 299 298 298 298 299 300 300 301 303 303 302 302 303 304 304 304 304 303 304 305 305 305 305 304 303 302 302 302 302 302 304 304 302 301 299 299 299 297 297 296 296 296 295 295 295 294 293 293
298 298 298 299 299 299 299 299 299 299 298 298 299 299 300 300 300 300 300 300 300 299 299 299 298 300 301 299 298 298 297 297 296 296 298 298 297 297 298 299 299 298 298 298 298 299 300 301 301 301 302 303 303 304 306 306 305 305 305 306 305 305 305 304 304 302 302 302 302 302 303 303 302 301 299 298 298 298 297 296 295 295 294 294 294 293 293 292
298 298 298 299 299 299 299 299 299 299 299 299 299 299 299 300 299 300 300 300 300 299 300 299 297 300 301 299 298 299 298 296 296 296 298 299 298 297 298 298 298 298 299 298 299 300 300 301 301 301 302 302 302 304 306 307 307 306 305 305 305 304 304 304 304 303 302 302 302 302 303 302 302 300 299 298 298 298 298 297 295 295 294 294 293 293 292 291
297 298 298 298 298 299 299 299 299 299 300 299 299 300 300 300 300 300 300 300 300 300 301 299 298 301 302 299 298 297 297 296 296 296 297 299 298 297 297 297 298 299 301 301 299 300 300 301 301 302 301 301 301 304 307 306 305 306 305 305 305 304 305 305 304 303 303 302 302 302 303 302 301 300 299 298 298 298 298 297 296 295 294 294 293 292 292 291
296 297 298 298 298 298 298 298 298 299 301 300 299 300 300 301 300 299 299 299 301 302 301 300 299 301 300 299 298 297 296 296 296 295 296 298 298 298 297 297 299 301 302 301 299 298 300 300 300 301 301 300 299 301 303 304 304 305 304 304 304 304 305 304 303 303 302 303 302 302 302 302 301 300 299 298 298 297 297 296 296 295 294 293 293 292 292 291
295 296 297 297 298 298 298 297 299 301 302 301 300 300 303 306 305 301 298 298 299 299 300 299 299 300 299 299 297 297 297 297 297 296 296 297 298 299 299 299 302 301 299 299 299 298 299 300 299 298 298 297 297 298 299 301 302 303 304 304 304 305 305 304 303 303 302 303 303 301 301 301 301 301 300 299 298 297 297 296 295 295 294 293 293 293 292 291
296 296 296 297 297 297 297 297 300 301 301 301 301 302 305 308 306 302 299 299 297 296 298 298 297 299 298 297 295 295 297 298 298 297 295 297 299 299 299 300 302 300 298 298 299 299 299 298 297 296 296 295 296 297 298 300 301 303 304 304 305 305 305 304 304 304 302 303 303 301 301 301 301 301 300 299 298 298 297 297 295 294 295 294 293 292 292 291
296 296 296 297 297 298 298 298 300 301 301 302 301 301 301 301 301 300 300 301 298 296 298 297 297 298 296 296 295 295 297 299 300 298 295 297 300 300 300 300 300 298 299 300 300 300 299 297 297 295 295 295 296 296 297 299 300 302 304 304 305 305 304 304 304 303 302 303 304 302 301 302 301 300 300 299 299 297 297 297 296 294 294 294 293 292 292 291
295 296 297 297 297 298 299 299 300 300 301 301 301 300 299 299 299 299 300 302 299 297 299 298 298 298 298 297 295 296 298 298 299 298 295 297 299 299 299 300 299 298 299 301 300 300 298 297 296 294 294 296 296 296 297 300 302 302 303 304 305 304 304 305 304 303 303 303 303 303 302 303 302 300 300 300 299 298 297 296 295 295 294 293 293 292 291 291
295 296 296 297 297 298 300 300 299 300 300 300 300 299 299 299 299 298 298 301 300 298 298 298 297 297 298 297 295 297 298 296 296 296 294 296 298 298 298 298 299 299 298 299 300 299 297 296 295 294 294 296 296 296 297 301 304 302 301 303 303 302 302 303 303 303 304 303 302 302 303 304 303 302 301 300 300 299 298 297 295 295 294 293 293 292 291 291
295 296 296 297 297 298 299 299 300 300 299 300 300 299 299 299 297 296 298 302 302 299 298 297 297 297 296 296 295 296 297 296 295 295 293 294 296 298 297 295 298 300 298 298 299 299 297 295 295 294 295 296 297 296 295 299 303 303 300 299 300 300 300 301 302 303 305 305 302 300 303 305 303 301 301 301 301 299 299 299 297 296 294 293 293 292 291 291
295 296 296 297 297 298 298 299 299 298 299 299 299 299 299 299 298 296 300 307 303 299 300 300 299 298 297 297 295 294 299 299 294 293 294 293 294 297 298 296 296 298 298 297 297 297 296 294 294 294 295 297 298 297 294 295 302 304 300 298 299 300 300 301 303 304 305 304 301 299 302 304 303 302 301 300 301 300 300 299 299 297 295 294 293 292 292 291
296 296 296 297 298 299 299 299 297 298 300 299 299 300 298 299 299 296 302 310 303 298 301 302 300 298 298 297 295 297 302 300 295 295 294 293 294 295 298 297 296 297 295 297 299 297 296 296 296 295 296 298 297 297 295 294 299 304 300 299 301 300 301 303 303 304 304 302 301 299 300 303 304 303 301 300 300 300 300 300 299 298 297 295 293 292 292 291
296 296 296 297 298 299 298 297 296 297 299 299 298 299 298 298 298 298 307 310 301 298 300 301 299 297 297 296 297 299 300 298 299 298 293 292 294 296 299 298 296 296 293 298 301 296 295 297 296 296 297 298 295 295 295 294 298 300 298 299 301 299 301 302 303 305 302 302 303 301 299 302 305 303 300 300 300 299 300 300 299 298 298 296 294 292 292 291
296 296 297 297 298 299 298 296 297 296 297 297 298 298 298 298 297 301 310 307 298 297 298 299 299 298 298 299 298 299 297 296 299 298 294 293 294 295 297 295 296 297 295 299 300 297 295 295 294 296 297 296 295 295 294 294 297 297 295 298 299 298 300 301 303 305 302 302 304 302 299 300 303 303 301 301 301 301 300 299 299 299 298 297 295 294 292 291
296 297 297 298 298 299 299 298 297 296 297 297 297 298 297 298 302 306 308 302 297 297 298 300 300 297 297 300 300 298 297 297 296 296 297 296 296 295 293 292 295 297 296 298 298 296 294 293 294 297 296 295 295 294 294 294 295 296 296 299 301 300 299 299 300 300 302 303 302 301 299 300 302 303 303 302 302 302 301 299 298 298 298 297 296 295 293 291
296 297 297 298 298 298 299 298 297 297 297 298 298 297 298 303 310 311 304 299 298 298 298 299 298 296 295 298 298 297 298 298 296 297 298 296 296 296 295 295 296 297 299 300 299 296 294 296 297 295 295 295 294 294 294 293 293 296 300 301 302 301 300 301 300 298 301 302 302 299 298 298 301 301 302 302 301 300 300 299 297 297 298 298 297 296 294 293
296 296 297 297 298 298 299 298 297 297 297 299 297 298 304 308 308 305 301 300 300 298 297 298 297 295 294 295 296 295 297 298 296 296 295 295 295 294 294 295 294 298 302 300 299 298 296 296 295 294 294 294 295 296 296 295 295 298 300 300 301 301 300 302 301 298 300 301 300 298 296 298 300 300 301 301 301 300 299 298 297 297 297 297 297 296 295 294
296 296 296 297 297 298 298 298 298 297 298 299 298 302 313 312 304 300 299 302 298 294 294 296 295 293 294 297 297 294 295 296 296 296 293 294 296 294 294 293 291 297 301 299 299 300 299 296 294 296 295 294 296 297 297 297 297 297 298 298 301 300 301 302 300 299 301 300 297 295 294 298 300 300 300 300 300 299 298 298 297 297 297 298 298 297 296 295
296 296 296 296 297 297 297 298 299 298 298 298 300 309 316 309 302 299 300 301 295 291 293 294 294 294 295 297 295 293 295 296 294 296 296 296 297 296 295 294 293 294 296 297 298 298 300 300 297 296 296 294 295 295 295 295 295 295 295 297 299 299 300 302 300 300 301 299 296 295 295 298 300 300 299 297 297 297 297 297 297 297 298 298 298 297 297 296
298 297 296 296 296 296 297 297 298 300 299 299 306 313 311 304 300 300 302 299 294 293 293 291 292 296 297 295 292 291 295 296 295 295 297 297 297 296 294 294 293 292 294 299 297 295 300 301 296 294 294 294 295 294 293 294 295 295 294 297 299 297 297 298 297 297 296 296 297 297 297 298 298 298 297 296 297 297 296 296 296 297 297 297 297 296 296 296
297 297 297 296 295 296 297 297 299 300 299 305 313 309 304 301 298 300 301 297 294 295 295 295 295 299 301 297 295 294 293 294 295 296 296 295 295 294 293 292 292 291 294 297 297 296 301 301 295 293 294 292 293 294 292 294 296 296 295 297 296 294 295 297 295 292 292 296 299 297 298 300 299 297 296 296 297 297 297 296 296 297 298 297 297 297 296 296
297 298 297 295 296 296 296 297 299 298 300 312 315 302 297 297 294 296 298 295 294 293 295 300 298 297 302 301 298 297 295 295 296 297 297 295 295 295 292 291 291 290 292 293 295 295 298 301 296 293 295 292 290 292 293 292 294 296 297 296 293 293 293 294 296 295 295 299 300 297 298 300 300 300 298 297 298 298 298 297 297 297 298 297 297 297 297 296
296 298 297 295 296 296 296 298 297 297 304 314 312 300 295 295 292 292 294 294 294 293 296 301 298 294 299 302 299 296 296 298 298 297 297 296 296 295 292 291 291 289 289 291 294 294 294 301 298 293 294 294 291 293 296 294 292 294 295 293 293 296 296 295 297 298 298 300 300 299 298 299 300 300 299 299 299 299 299 298 297 297 297 298 298 298 297 297
297 301 302 297 295 296 296 297 296 300 312 314 308 301 296 294 293 290 291 293 294 295 297 299 296 294 296 298 297 295 295 298 297 296 297 296 297 295 292 291 291 290 289 290 294 294 293 299 301 294 292 293 293 296 298 297 294 293 294 293 292 294 295 296 295 295 297 299 299 300 300 302 302 298 297 298 298 298 299 299 298 298 298 298 298 298 298 297
296 304 305 296 295 297 295 296 300 309 314 306 300 298 294 294 295 290 289 292 294 296 296 297 296 296 297 296 295 294 294 295 295 296 296 295 295 296 293 291 290 290 290 290 292 293 292 296 301 298 294 295 297 297 297 297 296 295 296 296 294 293 293 294 293 291 294 297 296 297 300 304 302 297 296 297 297 297 298 299 299 299 298 298 298 298 298 298
297 308 306 295 296 297 296 301 303 303 303 297 294 294 293 295 296 291 289 290 291 293 293 294 294 295 298 297 294 294 294 294 294 295 295 295 296 297 294 291 291 290 291 292 292 293 293 295 298 299 298 300 299 294 293 294 294 296 297 296 296 295 294 297 297 291 289 292 294 294 298 303 300 295 295 296 296 296 297 297 298 299 298 297 297 297 297 297
302 309 303 297 297 296 301 308 296 289 295 296 293 293 294 295 295 293 291 289 291 292 292 293 293 293 295 296 295 294 294 294 295 295 295 295 295 295 293 290 290 290 292 293 292 292 293 294 296 298 299 299 295 291 291 292 292 293 294 294 294 294 294 298 300 295 291 290 291 291 295 300 298 294 293 294 295 294 295 295 297 298 297 297 297 296 296 296
307 307 300 297 296 297 306 310 297 290 294 293 290 291 293 293 293 293 292 292 292 293 294 295 294 294 293 293 295 296 294 295 296 295 294 294 293 293 291 288 289 291 292 293 293 292 293 294 296 299 299 296 292 290 290 289 290 294 294 292 293 293 294 295 296 294 293 292 292 292 295 300 298 294 293 294 293 294 294 294 295 297 297 297 297 296 296 295
305 303 300 297 295 300 310 309 304 300 294 291 293 293 291 291 292 293 293 294 294 293 295 296 293 293 292 289 293 294 292 296 297 294 293 293 293 292 289 288 289 291 292 292 294 294 294 295 296 299 302 301 298 297 295 292 292 295 295 293 292 292 291 292 292 291 294 295 295 296 299 302 298 295 294 294 293 295 296 295 295 296 297 297 296 296 295 295
302 301 302 299 294 299 305 303 305 306 296 295 299 295 293 293 291 292 293 293 292 292 295 295 292 292 290 288 292 292 289 293 296 294 291 291 292 290 289 288 288 290 292 293 293 293 294 295 295 299 304 306 306 305 302 298 295 295 295 293 292 292 291 293 294 293 295 295 294 296 300 302 299 297 296 296 295 296 297 296 295 294 295 295 294 295 295 294
306 306 306 306 299 297 295 291 297 305 302 302 301 295 295 296 292 290 291 292 292 291 293 293 291 292 291 291 297 299 293 290 290 291 292 292 292 289 288 288 288 289 294 293 291 291 291 291 293 297 301 302 305 304 298 295 295 295 295 293 292 292 292 294 295 294 295 295 294 295 298 299 300 299 298 298 297 297 297 296 295 295 295 294 294 294 293 293
305 306 303 305 305 302 299 294 294 301 301 301 301 297 297 297 293 291 290 291 292 291 293 293 291 294 295 295 299 301 295 291 289 292 293 292 291 289 287 288 288 290 294 293 291 290 291 292 293 295 297 298 299 298 294 292 293 294 294 294 294 293 292 293 294 295 295 296 297 298 296 297 298 298 298 298 297 297 297 296 295 295 294 294 293 293 292 292
301 301 294 295 302 304 303 299 297 298 298 297 296 296 298 298 296 296 294 290 290 291 294 295 293 295 295 295 298 298 297 297 297 297 296 292 290 290 289 288 287 290 293 291 289 290 291 293 293 292 293 294 293 294 293 292 292 293 293 294 294 293 293 293 294 294 294 296 299 299 296 297 298 297 298 298 297 297 296 295 295 294 293 293 293 292 292 292
297 297 291 291 298 300 297 295 295 299 300 298 296 296 299 302 299 296 293 292 293 292 292 298 299 295 293 293 295 297 299 300 300 299 297 295 292 291 292 291 289 290 293 290 289 289 291 293 292 290 292 293 293 293 292 291 292 292 292 293 293 293 293 293 293 294 294 295 296 296 296 296 296 296 297 297 297 296 295 294 294 293 294 293 293 293 293 293
298 300 297 295 296 294 292 292 294 299 299 298 299 297 297 301 300 295 292 295 300 295 291 298 300 294 293 293 294 296 299 299 299 298 295 294 293 291 293 295 291 290 292 291 289 288 290 293 293 289 291 294 294 293 291 290 290 291 291 292 292 292 292 292 293 293 293 294 294 294 294 294 295 296 295 295 295 294 294 294 294 294 294 294 293 293 293 293
296 296 296 301 301 295 293 293 293 299 300 299 301 299 297 300 299 295 294 295 298 298 295 297 298 294 293 292 292 295 296 295 297 296 294 294 295 293 294 294 292 291 291 291 290 289 289 292 291 290 293 296 292 290 291 291 291 292 294 295 294 292 292 292 292 292 293 293 293 293 293 294 295 296 295 295 295 294 294 294 294 295 295 294 293 293 294 294
294 293 293 302 304 296 293 294 293 299 303 302 301 299 298 299 296 295 298 295 292 295 296 295 296 295 295 295 294 295 296 295 295 294 293 293 293 292 292 292 292 293 292 291 290 289 289 291 291 291 295 296 291 289 290 291 296 300 301 299 297 294 293 293 293 292 292 293 294 294 295 296 296 296 296 295 295 295 295 295 295 295 295 294 294 293 293 294
Wind_Speed
15 15 14 14 14 14 15 15 16 16 17 18 19 22 23 26 26 24 21 17 17 18 13 4 6 7 6 7 11 18 30 37 46 55 42 28 29 28 30 30 27 23 16 13 13 11 12 15 13 10 10 10 7 5 6 8 7 2 2 4 5 4 5 4 5 4 4 5 7 9 10 11 9 11 11 5 7 11 4 8 11 9 14 16 16 20 22 23
14 14 14 15 16 15 15 14 14 15 15 17 19 21 23 26 26 26 23 18 17 20 19 9 5 9 9 6 1 8 19 27 41 46 35 31 31 30 32 30 24 20 14 14 18 16 11 10 11 10 10 7 6 7 6 7 8 6 4 5 5 5 5 5 6 5 4 6 6 5 7 12 12 12 10 6 9 15 11 11 15 14 17 20 21 24 24 24
16 16 16 17 17 15 14 13 13 13 14 17 18 20 23 24 26 27 24 20 16 19 25 20 7 4 9 10 7 2 8 17 32 31 32 34 31 31 32 28 22 17 14 13 14 15 13 9 10 10 10 9 7 8 9 7 6 6 5 6 6 4 5 7 6 5 4 5 5 3 4 10 13 12 10 7 5 13 14 13 15 17 19 20 21 24 25 23
17 17 17 17 16 15 14 12 11 11 13 16 17 19 22 23 25 26 26 22 15 16 25 29 22 9 4 9 7 4 8 9 19 22 31 33 30 30 32 28 21 17 14 13 12 12 12 10 10 11 10 10 8 8 12 9 5 6 6 7 6 3 5 9 8 6 4 2 4 4 2 7 10 11 13 10 3 7 12 11 13 14 16 17 19 22 22 21
17 17 16 16 15 15 13 12 11 11 12 14 16 18 20 23 23 24 26 23 16 12 18 29 34 26 14 1 7 6 7 4 12 26 30 28 29 29 30 29 22 18 17 17 15 12 11 8 8 11 10 8 8 8 10 8 5 7 9 8 6 4 6 8 8 8 5 1 3 6 6 5 6 9 15 15 8 6 9 11 12 12 13 14 15 18 19 20
17 17 16 16 15 15 14 13 11 11 12 13 15 17 19 22 22 23 24 24 18 9 10 19 27 33 33 24 20 14 5 5 11 26 26 25 28 28 28 28 23 21 22 23 19 15 14 9 9 10 9 10 12 11 9 7 4 7 9 9 8 7 7 6 7 8 6 6 6 6 5 4 5 9 12 14 11 8 9 11 11 10 11 12 13 15 17 19
17 16 16 17 16 16 15 14 13 12 12 12 13 15 19 20 21 22 23 25 21 10 5 7 11 21 26 29 39 33 15 6 14 23 22 23 27 27 26 28 28 27 28 27 20 12 11 13 15 10 9 12 12 12 12 12 11 11 10 8 9 9 7 5 4 6 7 10 8 5 6 6 7 8 9 12 11 10 10 11 10 9 10 12 13 15 16 17
15 15 16 16 17 17 17 16 15 14 12 12 12 14 18 18 19 22 23 25 24 18 9 3 3 6 11 14 20 20 12 8 19 23 20 22 27 27 26 29 32 33 34 31 20 8 6 11 12 6 9 10 6 8 7 11 13 12 10 7 7 8 8 6 4 5 7 7 5 7 10 8 5 5 10 13 11 11 11 10 10 9 10 11 13 15 16 17
15 14 15 16 18 18 18 18 17 16 14 13 13 14 16 16 17 21 24 26 27 27 20 16 12 10 19 17 7 9 11 15 21 22 20 21 24 27 30 32 32 33 33 31 25 15 7 8 9 6 10 8 5 5 3 5 8 8 9 8 8 9 10 8 7 6 5 5 5 8 11 8 4 1 7 12 11 11 10 9 9 9 10 11 11 14 16 16
14 13 15 16 18 20 20 20 19 17 15 14 13 13 16 16 16 20 23 26 29 32 31 32 29 27 33 19 4 9 11 18 23 22 20 19 21 26 31 31 30 30 26 24 26 19 8 7 8 7 9 8 7 7 8 6 6 6 8 8 8 9 11 10 10 8 3 4 6 6 10 11 6 1 5 10 11 11 10 9 9 8 9 10 10 13 15 16
14 13 14 16 18 20 21 22 21 19 16 14 15 15 17 17 15 18 22 25 28 31 32 33 34 40 41 22 11 12 11 20 24 22 22 18 19 25 27 27 28 28 22 19 22 19 9 4 3 2 3 5 7 10 11 6 4 3 2 4 6 8 13 15 13 11 4 3 7 2 3 9 9 6 7 10 10 10 9 8 9 9 9 10 10 11 13 15
13 13 13 15 17 20 22 24 24 24 21 15 14 15 16 18 17 15 17 22 25 27 28 28 30 32 27 19 16 10 12 23 23 22 25 18 16 19 20 23 25 26 23 18 19 19 14 7 3 5 3 2 3 6 6 2 1 3 1 1 4 6 13 16 13 12 6 6 8 3 4 5 9 9 9 9 9 9 8 8 9 9 9 9 9 9 11 14
13 12 13 14 17 19 21 22 23 25 25 18 12 12 13 16 19 17 14 13 14 16 19 23 27 23 13 9 12 14 16 23 24 23 26 21 13 12 15 18 20 24 23 19 18 18 17 15 15 13 5 2 4 3 4 1 0 3 3 2 2 2 8 12 13 12 8 8 9 2 4 4 8 9 8 8 9 8 7 7 8 7 8 8 8 8 9 13
12 12 12 15 16 18 18 20 21 23 26 24 14 10 14 17 18 18 16 13 10 10 14 16 15 15 12 7 8 18 19 21 27 26 26 25 16 9 11 13 15 20 21 19 17 17 14 13 17 13 4 5 4 4 5 3 2 1 1 2 3 2 4 8 11 14 9 8 11 5 4 3 5 8 7 7 8 7 7 7 8 7 7 7 7 8 8 10
12 11 12 14 14 15 16 17 19 20 24 27 20 10 10 14 16 15 15 16 15 13 15 16 11 7 8 7 6 18 23 24 28 27 22 25 23 14 10 10 12 15 18 18 13 15 16 11 10 8 4 3 1 3 4 4 5 2 1 2 4 3 3 5 7 13 10 7 11 7 4 2 4 6 7 7 8 7 6 6 7 7 7 7 6 7 7 9
10 9 10 10 10 11 13 14 15 14 16 21 26 20 8 4 4 6 9 13 17 16 14 14 11 7 6 4 7 15 22 22 24 25 19 19 24 18 12 8 10 11 13 17 13 11 18 14 7 5 5 3 2 1 2 3 5 5 4 3 4 4 4 3 4 9 10 7 9 8 4 2 4 6 6 6 7 6 5 5 7 7 8 8 7 7 7 8
9 8 7 6 6 7 9 10 11 11 9 8 17 27 25 14 4 1 1 2 8 12 14 15 8 6 7 6 8 9 14 18 22 27 20 14 19 21 16 9 8 9 7 15 19 11 13 10 3 2 6 7 5 2 0 5 6 5 5 2 2 4 4 5 3 5 9 7 7 8 4 3 4 6 6 6 7 7 6 6 7 7 7 6 7 7 7 7
8 6 5 4 3 5 8 10 13 14 7 2 4 12 23 27 24 19 11 6 3 3 9 18 11 5 7 9 7 9 14 16 20 26 21 12 13 18 20 13 7 6 2 8 16 10 6 5 2 2 6 8 8 6 5 6 5 5 6 3 2 3 2 5 6 5 8 7 6 6 3 3 4 4 5 5 6 6 7 8 8 8 7 6 6 7 7 8
8 5 3 2 4 6 9 11 14 13 5 3 5 4 4 11 22 31 33 26 12 4 4 11 10 3 3 7 10 14 13 11 17 25 26 16 9 12 16 14 6 5 4 3 9 8 4 4 3 4 7 9 9 8 6 4 3 3 4 4 4 5 3 4 6 6 7 7 5 5 4 4 4 4 4 4 5 5 6 7 7 7 7 6 6 7 7 8
8 6 3 3 5 7 10 10 12 11 5 5 5 3 0 2 6 13 21 23 13 7 5 3 4 2 3 5 12 15 8 5 13 25 30 19 8 8 12 10 4 8 7 2 4 5 2 6 7 6 6 7 7 5 3 1 2 2 2 3 5 5 4 4 4 6 6 6 5 3 5 5 3 3 3 3 3 3 4 6 7 7 6 5 6 7 7 8
8 7 5 5 6 7 8 8 9 13 13 8 6 5 2 0 3 2 3 10 9 8 8 3 2 2 2 3 11 15 5 2 8 23 32 20 7 6 9 9 5 9 7 1 1 1 1 9 8 5 4 4 4 2 0 0 1 2 3 4 4 4 6 5 5 6 5 5 6 6 7 7 3 2 2 2 3 3 4 5 7 9 8 5 6 7 7 6
9 8 5 5 6 6 6 6 9 12 13 12 14 13 6 4 8 8 4 6 6 6 5 3 4 3 2 2 11 12 3 2 7 20 30 20 10 6 4 6 9 8 6 2 1 1 6 9 6 5 2 2 1 1 2 2 1 1 2 4 3 4 7 5 2 5 5 4 7 9 10 8 4 3 1 2 2 2 4 4 5 8 8 6 6 6 7 7
11 9 6 5 5 6 6 8 7 6 8 13 17 14 9 9 11 9 4 5 3 2 1 2 3 4 3 3 12 12 3 5 5 14 26 17 8 5 2 6 8 6 8 7 4 5 6 5 5 4 2 3 3 4 1 4 2 1 2 3 3 5 6 3 1 6 9 6 7 11 11 7 4 4 3 2 0 1 2 5 5 6 7 7 7 6 6 7
11 11 9 6 5 6 7 8 7 7 11 17 18 14 10 8 8 6 2 2 2 1 1 2 2 3 3 3 12 9 2 5 2 9 21 13 3 1 2 4 4 4 6 7 8 11 6 3 4 2 2 3 3 5 5 0 1 2 1 2 3 5 4 5 5 9 11 5 4 11 9 4 3 5 4 3 3 1 2 4 5 6 6 6 6 6 6 6
12 12 12 9 5 4 6 7 8 11 13 14 14 12 9 6 4 2 1 1 2 1 1 1 2 4 4 5 13 6 3 3 2 6 13 10 4 2 2 1 2 4 2 3 5 8 6 2 2 2 1 1 3 4 5 3 2 1 2 0 4 5 5 7 7 8 8 1 3 8 7 1 3 6 5 3 3 3 3 1 5 5 6 6 4 5 5 5
12 11 12 12 7 3 2 5 7 9 9 9 9 8 6 4 3 1 0 1 3 2 2 1 0 7 7 7 12 4 2 2 2 7 11 9 6 1 1 1 1 3 0 1 2 3 3 1 0 1 1 1 3 4 2 3 3 1 2 1 4 4 4 5 5 5 5 3 3 4 5 4 1 5 4 4 4 4 5 5 6 4 4 5 4 4 4 5
13 12 11 12 10 5 2 3 4 5 4 4 5 5 4 3 3 2 1 1 3 2 4 4 2 7 8 9 12 3 1 5 3 6 11 11 7 2 1 3 1 3 1 1 1 2 1 1 2 4 2 3 3 3 2 2 4 2 3 0 3 4 4 2 2 3 3 5 3 2 1 5 4 1 4 5 5 5 6 6 6 5 4 4 4 4 4 4
13 13 12 12 12 11 7 5 5 5 3 4 4 3 2 1 2 1 0 2 2 1 1 3 2 6 7 9 12 4 1 6 3 6 11 11 9 2 1 3 1 2 1 2 2 3 2 4 5 6 5 4 3 3 3 2 4 2 2 1 3 3 3 2 3 4 2 3 2 3 1 5 4 1 4 5 5 7 8 8 8 7 5 4 4 4 3 3
14 13 13 12 11 12 10 8 7 6 5 4 3 2 2 2 1 1 2 2 2 1 1 3 3 5 7 6 7 5 3 4 3 7 10 8 9 5 2 2 1 1 1 1 3 3 1 3 4 4 5 4 4 4 2 3 3 3 2 3 3 3 2 2 3 3 2 3 1 2 3 4 4 0 4 4 5 8 8 7 7 7 6 6 5 5 4 2
13 13 13 11 8 8 8 10 10 6 5 4 3 2 0 1 0 1 2 0 1 1 0 3 3 4 8 4 3 5 5 3 2 6 4 2 6 7 3 1 1 1 1 2 6 3 2 1 1 2 3 3 5 4 1 4 5 5 4 6 5 4 2 2 2 2 3 2 2 3 2 3 4 1 3 3 4 5 6 7 7 7 8 8 7 6 4 3
13 14 13 11 10 7 5 7 8 5 5 4 3 1 0 1 1 3 2 0 1 1 1 3 2 3 7 5 3 6 5 3 5 7 5 2 5 7 3 2 1 0 1 3 5 3 1 1 0 1 2 2 3 3 2 3 5 4 4 5 4 3 3 2 2 1 2 2 3 3 1 2 4 2 1 3 3 4 6 8 9 10 9 8 7 6 5 5
13 14 13 12 12 11 7 5 5 4 4 3 2 1 1 0 2 2 1 2 2 2 1 2 2 3 5 2 3 7 4 4 6 6 5 3 5 6 6 5 3 2 3 3 3 1 1 1 2 1 0 1 4 3 2 2 2 3 3 4 4 2 1 1 1 1 2 2 3 3 2 2 5 4 3 4 5 6 6 7 8 10 9 8 7 7 6 5
13 14 14 14 13 12 9 5 3 3 2 1 2 1 2 3 2 1 2 2 2 2 1 1 2 3 3 2 3 5 2 1 5 4 1 1 3 4 5 7 5 3 3 4 4 4 1 2 1 1 1 2 5 4 2 1 4 5 4 4 4 4 4 4 3 3 3 2 2 2 1 3 4 3 2 3 3 3 3 3 4 6 7 7 8 7 7 6
11 13 14 15 14 12 9 4 3 3 2 1 1 1 5 3 1 1 2 2 1 2 0 1 2 1 2 2 3 4 1 1 4 4 2 2 2 3 3 7 8 3 1 1 2 4 2 1 2 2 2 3 3 4 3 3 3 3 2 3 3 3 4 4 4 4 5 5 3 1 1 3 3 2 2 0 2 1 1 1 0 2 3 4 5 6 7 8
7 10 14 16 15 12 9 5 2 2 1 1 1 3 5 2 2 1 1 2 1 1 1 1 2 0 2 2 1 2 1 1 3 3 4 3 2 2 2 4 7 5 2 1 1 1 2 2 1 1 2 2 2 1 1 3 1 1 1 2 2 3 3 3 1 2 4 5 4 2 1 3 2 1 2 0 1 1 2 2 3 4 4 3 4 6 7 8
4 5 11 17 17 13 9 5 1 2 1 1 3 4 2 1 1 2 1 0 1 1 1 0 2 1 1 1 1 1 1 1 2 2 2 3 0 0 1 1 4 4 3 2 1 1 2 2 2 1 1 2 2 1 1 3 2 1 1 1 2 2 3 2 0 0 1 3 2 1 4 5 2 1 1 1 3 3 4 4 6 7 6 5 6 7 8 8
2 2 6 15 18 13 9 5 1 2 1 2 4 3 0 0 1 1 1 1 0 1 0 1 2 2 1 1 1 3 2 1 2 3 1 1 1 2 1 1 0 2 3 2 0 1 3 4 0 1 1 2 1 2 2 2 3 2 1 2 2 0 0 1 2 2 2 3 2 1 5 7 4 0 1 3 5 6 7 6 6 7 7 8 9 8 8 8
1 0 2 12 18 14 8 5 2 2 2 4 4 2 1 0 1 1 1 1 1 1 0 1 1 1 1 1 1 3 4 2 3 3 1 1 0 3 2 1 2 0 2 3 1 1 2 4 1 1 1 2 1 3 1 2 2 3 2 3 0 1 0 0 2 3 3 4 4 3 4 5 3 1 1 2 3 5 7 7 7 9 9 9 9 10 10 9
1 0 1 11 19 13 8 4 2 1 2 3 2 2 1 0 1 1 1 2 1 1 1 1 1 1 1 1 1 1 3 3 3 2 1 1 1 3 2 1 2 2 0 2 1 1 1 3 1 1 2 1 1 2 2 1 2 2 2 2 1 1 1 2 2 2 3 4 4 4 4 3 3 1 2 2 0 1 5 7 8 10 11 9 9 9 9 8
0 0 0 12 19 11 6 6 4 3 4 3 1 1 1 0 1 1 2 2 1 1 1 1 1 0 1 1 2 1 1 2 1 1 0 1 1 3 3 2 2 3 1 1 1 1 0 1 3 1 1 2 1 0 2 1 0 1 2 1 0 1 0 1 1 1 2 3 3 4 6 6 1 2 3 4 1 2 1 4 6 7 7 8 8 7 7 7
1 1 0 13 19 9 4 8 6 3 3 2 2 1 1 1 1 1 2 2 1 1 1 1 1 1 1 0 1 1 1 1 1 1 1 1 1 2 2 2 2 2 1 1 1 1 1 1 4 4 3 3 1 2 2 2 2 3 2 1 0 1 1 2 1 1 0 2 2 2 7 9 3 2 3 3 1 1 2 3 4 4 5 6 7 7 7 7
1 1 1 13 18 7 4 6 3 2 2 2 2 1 1 1 2 1 1 1 1 1 1 2 2 2 1 0 0 1 1 1 1 1 2 2 3 2 2 2 3 2 0 0 1 0 1 1 3 5 5 3 2 2 0 1 0 1 2 1 0 1 1 3 3 1 1 1 1 0 5 6 1 2 1 3 2 3 3 4 5 5 5 6 6 7 8 8
1 0 2 14 17 4 4 4 1 2 3 1 1 1 1 2 1 1 1 0 1 1 1 2 1 1 1 1 0 1 1 2 3 1 1 2 2 1 2 3 3 2 1 1 1 2 1 1 2 5 5 1 2 3 2 0 1 2 2 2 2 1 1 2 2 1 1 3 3 2 5 5 0 2 1 2 2 3 3 4 6 6 5 5 5 6 6 7
1 1 2 13 15 2 3 2 2 2 2 0 1 2 1 1 1 1 1 1 0 1 1 1 1 1 2 2 1 1 2 1 2 1 0 2 1 2 3 2 3 2 2 1 0 2 2 1 1 5 6 1 1 1 1 0 1 3 2 3 4 2 3 1 1 1 3 6 7 4 7 5 1 3 3 2 2 4 4 4 4 5 6 6 6 6 6 6
1 0 2 9 14 8 3 1 3 4 2 2 2 2 2 1 1 0 0 0 1 1 0 1 1 2 2 2 2 2 2 1 1 1 1 1 2 1 2 2 3 1 1 1 0 2 2 1 1 3 5 4 5 4 2 1 1 2 2 5 6 6 7 4 2 3 4 4 7 7 8 7 4 3 3 4 4 6 7 4 4 5 6 7 7 8 7 6
0 1 1 4 9 8 3 1 3 5 4 3 3 2 2 2 2 1 0 1 1 1 1 1 2 2 2 2 1 1 1 1 0 1 2 3 2 0 1 3 3 0 1 1 1 1 1 1 4 5 6 7 10 8 2 2 4 6 6 7 8 9 10 7 4 5 6 3 6 11 12 14 16 13 11 9 7 8 9 8 7 7 7 7 7 8 8 8
0 1 1 1 2 3 2 1 2 3 3 2 2 3 3 3 2 1 0 0 1 1 0 1 3 3 3 3 2 1 1 1 1 1 3 4 2 0 1 3 3 2 3 2 1 1 1 3 5 7 10 12 14 12 4 3 9 12 11 11 10 11 11 10 10 9 4 3 9 9 9 14 18 16 15 14 12 10 9 10 11 10 9 8 7 8 9 9
1 1 0 1 1 1 2 1 2 3 3 1 1 2 3 3 3 2 1 0 0 1 2 1 3 6 5 4 3 2 1 1 2 2 3 3 2 1 2 4 4 3 4 2 1 1 2 4 2 4 9 12 12 13 10 8 11 12 13 15 13 12 13 14 17 15 9 9 13 8 6 13 17 16 17 17 14 11 11 11 10 10 10 9 8 8 9 9
2 2 1 2 1 1 2 2 2 3 3 2 1 2 3 4 4 2 1 2 0 2 2 2 4 6 6 5 3 2 3 2 3 3 3 2 2 1 2 2 4 4 4 3 1 1 2 3 1 1 8 12 12 12 10 9 12 13 16 16 14 15 17 18 19 18 16 18 21 19 19 20 19 18 20 18 13 9 10 11 10 9 9 7 7 8 9 9
1 2 1 2 2 2 1 1 1 1 2 2 0 2 2 4 5 2 2 4 2 2 3 4 3 4 6 6 5 5 5 4 4 4 3 3 3 2 2 1 4 5 5 4 1 1 2 1 2 2 6 11 9 7 6 7 11 14 18 18 15 16 17 17 17 16 16 19 21 22 21 19 18 17 16 14 12 8 8 10 9 9 8 6 7 9 9 9
3 3 4 3 2 1 1 1 1 0 1 0 1 2 3 4 6 5 3 3 2 4 7 6 3 4 2 5 8 10 7 5 6 5 4 5 4 2 2 1 4 7 6 4 2 2 3 2 2 2 6 7 2 3 6 9 12 15 19 18 14 15 13 12 13 13 14 15 15 13 12 13 14 10 7 9 9 7 9 9 8 8 8 6 7 9 9 9
4 3 2 2 2 0 1 1 0 0 1 1 1 3 2 2 4 5 3 1 0 2 5 6 5 4 2 5 10 10 7 6 7 5 3 4 4 2 2 1 2 5 6 5 3 2 3 3 1 1 5 5 2 3 7 10 12 10 8 7 6 11 10 8 9 12 14 13 9 7 8 11 9 5 6 10 9 8 8 7 6 8 9 8 8 8 9 9
Wind_Direction
39 39 41 51 59 65 71 76 79 76 69 60 53 50 46 42 39 36 35 36 35 23 12 331 219 189 166 101 60 45 35 33 38 39 36 13 358 0 359 357 352 354 4 23 48 47 44 45 34 44 60 45 15 350 14 15 1 357 53 68 79 65 52 20 352 351 322 319 3 14 10 18 8 348 346 325 5 13 31 36 24 31 23 11 2 353 350 352
51 51 53 63 68 70 74 77 80 75 65 54 50 49 45 42 39 36 34 34 38 29 26 18 256 222 204 183 174 39 32 25 35 35 20 6 9 8 4 4 360 359 13 42 48 36 42 34 12 41 63 51 13 10 33 10 7 35 59 74 72 64 50 11 343 331 314 322 354 18 23 33 20 348 340 343 20 22 18 2 359 2 359 358 357 353 353 356
62 65 64 67 67 68 73 77 77 71 59 51 50 48 43 42 39 37 33 31 38 38 40 41 30 239 213 210 229 318 348 13 34 23 1 6 14 10 7 11 9 9 27 49 50 46 55 39 16 47 69 60 29 32 49 12 2 28 41 81 72 69 62 24 4 348 332 325 349 27 34 37 28 9 358 343 10 34 25 358 350 351 346 345 348 350 351 354
64 66 66 64 64 65 69 72 69 63 54 49 48 45 41 40 38 36 33 30 35 47 49 50 50 45 212 217 229 285 303 13 37 359 352 8 13 11 12 17 20 26 40 57 58 57 59 48 42 55 68 64 44 47 48 20 22 41 37 78 77 80 62 26 19 15 4 334 9 39 36 30 29 24 22 8 4 31 16 358 346 339 337 339 342 347 350 355
67 66 64 61 59 60 62 63 60 54 49 46 43 41 39 37 36 35 33 30 30 54 60 57 57 56 63 163 234 262 293 30 16 345 355 11 14 15 16 21 33 43 52 66 60 53 55 49 53 56 59 58 48 55 48 31 62 74 57 72 77 77 72 38 30 26 17 57 46 51 47 27 31 34 31 30 38 14 350 346 342 336 338 341 344 349 353 357
68 66 63 59 56 56 55 54 51 46 43 40 38 37 34 32 34 35 34 31 29 50 74 66 62 61 65 73 83 77 64 84 339 339 1 15 18 18 19 26 40 52 62 68 56 49 51 50 66 61 64 64 56 63 59 45 75 95 76 71 69 70 78 55 39 29 24 60 54 55 60 36 52 48 35 37 35 6 347 345 342 340 341 345 354 358 1 2
67 66 63 58 55 54 52 50 45 41 37 34 35 31 27 27 34 38 36 36 33 40 83 94 74 62 62 67 72 69 73 72 340 347 11 19 21 20 24 33 42 51 56 53 42 40 43 53 68 65 77 75 64 71 70 65 72 90 92 76 65 63 68 59 45 35 34 56 53 63 68 38 48 50 36 33 22 3 354 352 351 348 349 356 4 7 10 7
65 66 63 57 56 57 54 52 45 41 35 31 30 23 23 28 40 42 42 45 45 50 67 126 106 60 52 59 69 68 64 18 351 2 17 19 22 20 27 35 41 49 49 44 32 22 26 51 60 42 72 76 70 80 75 68 66 75 91 86 71 60 57 61 60 45 37 47 42 60 58 40 56 61 40 29 10 2 355 354 1 0 6 10 9 10 10 9
66 67 63 60 62 64 61 56 49 43 36 30 25 20 31 40 48 48 49 56 60 66 74 85 91 90 76 73 98 81 40 357 360 12 12 13 18 22 32 33 37 46 47 43 35 32 38 50 49 50 81 81 66 62 2 50 63 73 93 88 78 66 53 52 51 44 36 31 17 53 59 43 52 90 47 32 9 359 352 360 8 8 18 17 13 11 8 8
67 68 66 68 71 69 65 58 51 44 37 36 36 42 51 54 57 57 58 64 69 74 78 82 83 80 73 63 66 73 18 358 16 19 12 9 14 25 33 31 34 43 44 41 36 38 50 59 59 77 92 75 54 44 23 60 95 92 101 90 81 74 50 39 40 33 31 45 15 44 66 49 37 18 36 21 6 359 351 5 13 14 22 17 16 13 10 9
67 71 73 76 76 72 67 61 54 47 44 47 54 61 60 58 64 67 67 70 71 71 72 75 74 72 67 54 59 69 9 10 22 19 20 13 16 27 31 30 33 39 41 40 37 38 49 59 74 88 87 70 65 63 52 63 112 90 142 110 77 73 45 28 25 18 360 34 4 329 79 49 40 31 16 359 359 359 350 6 15 19 23 15 17 16 13 11
67 73 79 81 79 75 70 64 56 48 46 53 62 63 62 63 67 72 75 75 72 68 66 64 65 69 66 54 59 53 13 21 19 21 28 21 24 29 31 34 34 37 40 43 38 37 50 64 95 75 59 151 92 73 75 55 107 76 190 160 63 69 45 25 12 5 357 8 1 267 233 35 39 21 5 354 355 353 351 10 14 18 21 14 15 15 17 13
66 73 80 83 81 78 73 64 57 49 44 50 62 60 67 73 69 69 72 75 71 65 63 61 63 63 56 61 51 29 24 24 18 26 30 29 41 39 37 41 36 38 41 45 43 39 53 66 79 83 63 99 91 97 131 124 172 84 40 14 22 68 41 25 7 357 8 9 1 277 251 23 38 9 359 356 353 350 356 13 12 16 17 12 13 13 18 15
64 74 83 87 85 79 72 64 58 52 46 45 53 67 80 80 71 66 63 65 65 59 58 57 63 54 44 82 51 22 23 24 23 24 23 27 39 50 47 48 42 39 39 43 48 45 53 66 74 86 59 47 92 158 145 84 55 102 20 25 16 19 24 29 15 5 18 11 354 309 274 18 23 359 0 353 353 354 357 8 9 11 11 8 10 10 14 16
62 76 89 93 90 81 72 65 60 59 54 49 50 71 102 88 73 68 62 63 60 57 61 57 65 66 60 87 39 17 23 26 22 16 18 25 28 27 21 38 42 35 37 41 50 47 46 57 61 61 33 11 167 154 123 86 61 23 304 50 23 16 19 35 35 19 12 356 356 336 296 3 358 355 1 354 357 352 355 9 5 6 10 8 8 10 9 10
63 77 94 95 87 76 67 63 60 60 58 53 55 61 84 110 67 55 59 66 60 57 64 59 59 76 88 73 4 15 21 15 8 10 21 26 24 19 7 32 42 33 39 38 46 41 35 52 70 43 27 9 341 8 115 90 58 31 25 53 18 1 359 6 56 33 5 344 5 6 353 360 348 357 358 356 358 345 352 11 7 9 9 6 7 10 9 5
66 78 90 88 74 60 49 44 35 31 37 55 63 62 62 63 56 300 339 60 55 53 52 37 41 96 72 28 5 8 360 353 1 12 20 23 25 25 27 40 20 20 43 36 41 33 16 33 77 72 40 28 12 319 356 36 24 18 19 48 33 1 341 350 24 31 3 355 10 10 12 13 349 348 350 359 359 347 354 7 9 9 5 9 7 6 9 7
67 79 83 71 42 24 15 8 2 5 20 88 108 74 63 61 66 69 61 65 33 8 34 18 13 116 56 15 356 332 324 340 3 12 14 18 24 27 34 36 359 355 43 34 33 17 357 24 34 84 44 26 25 20 51 42 8 5 5 6 12 349 339 352 354 1 350 345 3 4 4 7 349 343 350 358 360 359 5 5 4 0 359 9 11 7 8 9
60 69 76 31 354 344 347 354 357 357 6 122 153 155 62 49 60 58 53 59 58 16 35 5 360 111 45 352 331 327 321 340 9 13 12 11 7 18 25 26 24 38 45 32 24 6 1 53 42 40 28 20 21 24 47 54 10 6 351 343 340 333 344 340 337 356 341 321 341 356 339 331 332 345 354 354 358 7 10 3 356 353 353 0 11 10 5 11
46 47 52 7 347 333 343 360 7 13 51 142 162 147 148 328 46 44 38 50 61 50 73 12 354 78 41 340 332 342 335 341 20 16 10 4 344 4 9 355 18 53 41 17 23 4 355 56 49 27 16 5 3 13 29 9 333 319 297 324 331 323 342 341 329 349 339 317 329 334 306 297 303 332 349 351 340 355 9 356 348 345 344 354 6 9 10 13
33 27 29 13 357 344 357 23 36 53 79 107 117 91 111 215 70 105 24 51 60 54 71 65 36 56 5 321 341 353 343 282 20 13 10 9 347 357 358 346 25 45 25 298 311 283 40 54 42 11 360 330 347 17 233 290 249 272 302 316 320 326 333 322 308 333 337 316 328 329 302 287 268 283 332 341 313 341 8 358 349 339 335 353 5 7 11 13
31 21 20 14 13 9 22 60 74 76 78 82 89 92 115 132 114 133 139 91 61 37 73 74 62 51 319 335 358 351 316 322 5 7 9 11 18 27 348 12 53 45 1 312 242 48 62 52 17 352 343 236 78 106 189 141 146 287 322 306 316 343 327 297 277 343 338 306 325 328 308 293 262 235 255 310 316 1 1 5 1 334 327 346 0 7 6 5
34 27 22 19 28 37 63 90 100 93 73 81 93 99 113 116 127 137 114 107 93 19 53 46 57 26 345 31 6 348 360 27 354 358 2 3 26 39 354 35 59 48 16 23 43 61 61 35 2 341 267 196 99 60 148 172 138 54 2 316 318 347 336 310 15 345 321 292 312 317 301 285 253 224 219 235 57 63 360 13 4 332 331 340 348 2 3 4
34 30 29 28 37 55 84 94 97 91 83 93 97 102 121 120 128 132 78 104 99 62 90 53 110 41 16 12 356 349 70 41 336 342 358 8 27 329 16 42 49 55 32 24 58 78 76 15 349 311 264 189 134 49 40 61 76 92 58 342 310 321 310 288 308 322 309 274 316 324 304 263 212 230 234 185 161 163 71 21 333 323 339 332 337 357 1 4
30 30 30 26 30 63 84 80 83 90 85 88 93 102 117 118 136 143 61 102 55 42 130 112 138 31 9 346 358 4 152 58 46 349 357 16 8 299 100 59 347 47 26 331 54 78 71 24 321 301 327 169 150 59 26 336 347 142 145 197 280 289 276 286 307 315 313 294 48 353 321 315 165 221 246 190 193 202 138 171 279 308 336 321 332 355 355 360
26 25 27 28 28 42 75 66 81 94 81 74 92 109 106 92 107 104 69 100 48 1 355 12 37 8 357 348 355 343 180 41 39 15 12 17 3 264 119 16 13 50 343 281 62 80 63 68 292 13 6 24 82 78 28 318 322 308 125 184 257 266 258 291 318 315 325 324 355 3 325 320 250 209 220 206 216 212 179 205 244 263 303 310 334 347 341 350
26 22 22 28 31 40 91 102 93 93 76 88 118 119 106 78 59 41 270 62 43 351 353 359 334 356 355 351 350 321 145 343 327 34 20 6 358 265 359 23 82 52 56 235 51 72 20 311 36 25 357 9 41 47 32 334 306 321 98 182 251 250 250 261 305 297 322 305 288 61 342 290 289 192 178 203 225 230 218 218 225 230 255 288 316 326 329 341
29 26 24 25 31 45 72 108 103 87 99 148 159 143 141 42 12 338 150 77 16 319 14 350 334 358 351 352 6 47 52 326 328 23 4 7 13 319 21 43 32 35 90 236 26 69 2 360 20 4 354 17 15 341 349 265 284 353 73 297 258 249 243 198 248 280 307 302 282 93 14 283 291 90 151 195 233 242 234 222 220 222 230 246 264 282 301 318
35 33 32 28 30 41 59 84 91 96 116 144 154 166 185 4 339 260 82 111 305 359 90 327 342 356 340 341 19 43 7 354 29 348 344 18 25 16 63 40 2 35 275 287 43 79 60 21 8 345 357 5 329 314 300 218 267 340 330 276 226 204 215 203 265 292 270 277 312 55 360 319 312 220 167 198 236 243 232 216 216 217 219 224 229 238 247 267
40 40 37 33 33 40 56 66 71 92 105 109 121 127 151 348 284 126 55 121 335 20 227 348 353 324 336 351 38 22 10 20 342 325 341 47 14 31 88 265 304 50 320 46 57 69 84 55 290 339 4 337 308 302 238 228 277 312 296 269 231 200 204 219 276 288 262 262 112 90 29 327 313 296 172 196 223 233 215 195 201 208 215 219 219 226 226 224
42 41 38 38 42 42 50 56 59 85 94 97 110 70 20 296 68 98 78 314 27 352 322 24 6 334 6 30 29 0 3 4 347 355 20 25 3 21 38 311 322 303 307 64 59 64 112 123 220 345 360 332 300 267 199 227 267 279 268 277 273 228 209 217 216 216 286 342 115 127 21 257 259 300 185 201 207 223 207 189 196 206 211 213 212 216 217 218
44 38 33 37 43 45 59 71 63 87 99 86 69 349 181 54 31 81 329 323 6 358 18 18 339 3 11 26 25 356 339 355 9 22 19 6 25 27 26 19 342 314 20 30 16 20 139 90 2 323 89 359 309 288 192 202 264 300 291 302 311 307 315 313 319 265 299 349 126 133 358 255 241 276 279 220 202 209 206 192 194 201 203 206 208 211 213 216
44 36 30 32 37 41 55 72 72 105 126 32 351 339 85 79 54 129 279 319 8 358 35 280 305 347 327 313 24 354 311 344 356 18 28 334 48 61 64 41 3 321 2 358 341 348 67 101 7 294 154 360 334 349 9 327 348 357 342 331 340 354 356 345 340 319 298 320 132 135 338 280 268 281 259 234 210 200 208 191 185 197 200 204 207 209 211 213
39 33 28 30 33 32 37 50 74 122 131 346 300 37 62 71 105 149 270 272 305 327 349 280 297 346 9 32 8 323 278 101 351 350 352 355 41 50 62 38 20 353 292 352 16 360 356 40 13 358 336 343 7 29 5 306 334 4 328 314 349 18 347 331 340 322 311 314 300 221 195 275 313 21 118 85 355 16 257 248 247 235 213 203 205 205 211 217
26 25 24 26 28 24 24 27 58 135 135 13 18 56 70 109 214 174 250 257 228 249 200 307 305 20 49 45 15 319 293 77 18 6 7 23 39 22 20 11 7 355 299 344 42 336 285 270 41 32 306 339 28 46 299 271 273 104 251 285 347 10 329 314 354 321 311 310 290 260 253 268 284 56 111 198 275 161 205 219 228 238 223 202 213 210 212 219
4 13 21 22 18 14 16 18 29 143 153 81 57 56 77 190 218 149 112 54 157 181 164 160 339 21 40 348 33 63 205 282 348 358 36 49 89 30 65 351 354 353 345 5 20 351 312 288 101 113 163 58 11 303 300 316 315 264 288 357 32 347 310 299 37 130 262 281 278 291 298 290 272 212 181 214 220 196 187 205 215 219 212 209 222 220 215 218
352 21 22 17 12 6 9 13 50 130 131 78 73 75 82 292 249 170 38 348 271 307 231 187 6 16 347 294 352 1 326 252 331 346 37 56 175 156 129 132 73 342 339 342 89 52 316 295 73 117 135 91 312 266 95 28 307 300 339 86 115 200 69 319 299 294 280 280 286 311 301 301 308 343 142 172 207 212 204 205 212 213 213 218 224 224 220 220
299 89 37 11 6 3 5 17 64 114 81 64 76 110 162 88 270 278 315 313 270 301 9 119 21 12 238 256 6 346 330 326 3 13 13 308 117 159 169 128 133 89 331 305 295 100 285 288 17 124 275 66 169 235 137 95 2 357 61 121 158 295 339 347 306 317 320 307 293 292 302 288 263 264 74 158 191 214 206 201 211 219 219 222 226 225 224 222
271 217 63 2 359 2 12 26 71 80 65 70 93 143 142 144 270 295 290 303 287 274 44 100 359 359 183 247 349 334 341 349 357 6 345 344 48 173 180 154 149 129 69 292 308 97 253 289 338 158 239 317 161 231 265 96 73 40 142 152 28 338 317 336 339 301 294 303 306 316 326 290 214 196 292 268 124 198 200 200 216 226 224 224 227 225 223 220
37 69 106 355 356 2 22 40 56 49 55 71 122 135 71 227 261 307 254 280 322 315 359 141 167 186 180 251 306 296 8 355 322 330 301 352 281 191 166 176 184 126 105 311 311 275 168 260 282 267 206 262 261 67 329 351 43 267 222 207 99 135 296 293 221 231 296 294 301 311 304 291 253 131 248 262 27 49 227 226 232 238 238 239 241 239 236 232
53 58 215 353 356 354 27 46 47 36 66 90 83 81 73 177 150 65 210 237 296 346 359 68 114 110 157 233 293 223 277 277 215 278 237 198 231 204 140 162 186 135 144 175 166 252 241 213 276 300 295 287 356 71 355 345 333 295 273 281 336 277 303 296 275 78 54 269 280 310 294 291 315 71 272 281 13 5 299 281 274 271 264 260 257 254 251 250
68 52 292 349 356 2 54 54 46 24 77 90 45 42 353 99 101 54 139 200 288 330 37 63 72 74 106 29 343 207 259 256 201 235 244 215 225 227 99 115 144 125 227 282 93 89 305 270 269 281 278 299 43 90 356 331 303 264 281 303 43 195 233 280 298 302 181 217 65 358 272 278 328 94 297 310 324 312 304 279 279 285 276 269 265 260 256 253
47 54 320 349 355 19 88 67 74 37 53 16 333 44 8 19 87 38 351 253 308 341 40 72 56 46 69 11 67 160 281 260 212 220 260 242 244 239 94 124 145 148 197 246 140 167 230 260 263 279 273 212 106 140 147 14 205 204 221 192 193 209 215 275 299 2 270 214 162 185 252 256 89 112 226 297 297 282 268 253 271 286 286 279 273 267 261 256
29 236 306 354 360 45 135 68 128 103 66 232 41 86 90 359 56 51 352 291 332 333 90 90 60 55 59 35 80 112 346 307 224 263 286 233 273 45 84 140 156 163 196 288 67 173 210 215 263 301 308 328 122 173 163 245 222 231 232 184 197 180 102 92 146 112 255 219 187 217 257 251 168 127 167 199 220 261 259 222 236 269 288 295 293 285 275 265
56 272 260 359 22 63 105 69 138 132 134 142 96 104 135 113 86 330 248 142 36 333 97 90 86 104 97 71 71 69 3 349 215 322 3 248 258 38 74 146 153 159 254 359 82 192 232 245 216 297 317 317 308 309 320 315 249 232 207 186 199 190 171 194 229 213 240 206 179 212 248 266 265 212 212 223 232 278 292 271 233 249 269 282 289 291 287 277
113 35 292 348 28 57 77 17 103 119 147 157 130 140 156 128 135 181 117 113 141 154 98 110 143 131 127 143 86 35 322 307 332 307 287 257 250 43 90 139 136 239 274 115 114 177 244 257 229 241 256 264 278 293 8 26 288 272 249 216 203 199 204 220 241 232 226 206 221 232 242 268 279 277 279 281 277 286 294 295 292 283 278 279 282 286 287 282
89 79 15 324 15 53 75 55 68 100 146 179 155 151 155 140 139 138 357 271 172 158 104 113 169 185 178 175 177 198 248 284 336 268 250 246 251 320 160 148 138 222 214 155 75 154 220 256 223 224 241 252 271 286 314 316 277 272 267 252 223 203 202 207 225 230 201 215 258 244 224 252 271 279 286 291 294 293 293 297 300 298 297 296 290 287 285 282
37 139 24 337 330 51 53 53 81 87 95 117 115 130 142 149 160 168 172 168 15 218 221 205 212 213 194 170 177 184 207 275 275 235 240 248 251 256 190 157 140 172 186 176 320 213 242 267 213 209 252 260 271 283 287 278 269 264 263 260 246 222 206 209 228 231 210 227 253 262 261 265 273 281 285 287 290 296 301 302 297 290 288 288 286 286 284 281
65 119 51 357 20 102 26 19 94 99 93 87 99 150 166 173 178 174 117 117 54 259 229 247 236 213 194 184 187 190 195 224 268 248 219 217 229 241 238 177 132 140 172 175 258 270 224 249 181 241 278 274 270 274 275 269 271 271 261 252 242 233 222 221 234 236 230 241 254 265 275 277 276 275 277 280 287 297 300 295 290 284 281 282 284 283 280 280
122 156 128 58 70 80 23 10 73 95 71 38 117 171 174 178 174 164 157 170 174 165 195 239 238 188 191 197 204 229 219 205 257 262 195 197 237 216 238 238 120 133 173 181 212 262 228 256 83 92 285 279 269 271 275 270 273 275 271 257 237 231 232 231 238 241 238 246 255 261 268 273 271 267 267 274 287 295 286 281 284 284 284 288 289 287 284 286
113 129 141 122 93 65 329 38 19 41 113 231 206 158 184 206 186 169 178 199 196 167 184 201 161 130 172 206 217 242 244 218 246 254 185 196 246 205 195 226 123 142 170 189 205 199 207 260 75 80 292 284 284 330 308 294 281 272 273 267 232 215 223 225 224 223 220 230 245 254 258 258 260 267 274 271 270 267 268 274 283 286 287 282 278 284 290 292
120 109 130 108 86 227 226 97 108 248 175 206 170 155 190 206 174 172 176 177 217 191 195 185 150 133 178 213 222 242 255 247 260 270 215 220 269 263 228 231 144 152 157 170 202 199 199 238 69 55 287 284 56 4 319 308 297 276 271 279 212 188 203 223 224 217 211 215 227 229 234 247 257 285 297 281 273 262 261 270 279 284 287 283 271 267 275 281